Weather History for Coolangatta, QU

Change the Weather History Date:

Monday, June 10, 2013

  Actual Average (YBBN) Record (YBBN)
Temperature  
Mean Temperature 64 °F -  
Max Temperature 69 °F 69 °F 77 °F (2001)
Min Temperature 60 °F 50 °F 44 °F (2002)
Growing Degree Days 14 (Base 50)    
Moisture  
Dew Point 59 °F    
Average Humidity 84    
Maximum Humidity 94    
Minimum Humidity 66    
Precipitation  
Precipitation 0.51 in - - ()
Sea Level Pressure  
Sea Level Pressure 30.16 in    
Wind  
Wind Speed 6 mph ()    
Max Wind Speed 10 mph    
Max Gust Speed -    
Visibility 5.7 miles    
Events      
Averages and records for this station are not official NWS values.
T = Trace of Precipitation, MM = Missing Value Source: Averaged Metar Reports

Daily Weather History Graph

Daily Weather History Graph

Search for Another Location

Airport:

Trip Planner

Search our weather history database for the weather conditions in past years. The results will help you decide how hot, cold, wet, or windy it might be!

Date:

Astronomy

Jun. 10, 2013 Rise Set
Actual Time 6:33 AM AEST 4:57 PM AEST
Civil Twilight 6:07 AM AEST 5:22 PM AEST
Nautical Twilight 5:38 AM AEST 5:51 PM AEST
Astronomical Twilight 5:09 AM AEST 6:20 PM AEST
Moon 7:27 AM AEST (6/10) 6:20 PM AEST (6/10)
Length of Visible Light 11h 14m
Length of Day
10h 23m
New Moon, 2% of the Moon is Illuminated
Jun 10
New Moon
Jun 17
First Quarter
Jun 23
Full
Jun 30
Last Quarter
Jul 8
New

Hourly Weather History & Observations

Time (AEST) Temp. Dew Point Humidity Pressure Visibility Wind Dir Wind Speed Gust Speed Precip Events Conditions
12:00 AM 63 °F 56 °F 70% 30.22 in - SSW 5.8 mph - -   Overcast
12:00 AM 62.6 °F 55.4 °F 77% 30.21 in 6.2 mi SSW 5.8 mph - N/A   Overcast
12:30 AM 62.6 °F 55.4 °F 77% 30.21 in 6.2 mi SSW 8.1 mph - N/A   Overcast
1:00 AM 62.6 °F 55.4 °F 77% 30.21 in 6.2 mi South 5.8 mph - N/A   Mostly Cloudy
1:30 AM 64.4 °F 57.2 °F 77% 30.18 in 6.2 mi South 8.1 mph - N/A   Mostly Cloudy
2:00 AM 62.6 °F 57.2 °F 82% 30.18 in 6.2 mi SSW 8.1 mph - N/A   Overcast
2:30 AM 62.6 °F 57.2 °F 82% 30.18 in 6.2 mi SW 5.8 mph - N/A   Scattered Clouds
3:00 AM 63 °F 57 °F 76% 30.19 in - SSW 6.9 mph - -  
3:00 AM 62.6 °F 57.2 °F 82% 30.18 in 6.2 mi South 6.9 mph - N/A   Scattered Clouds
3:30 AM 62.6 °F 57.2 °F 82% 30.15 in 6.2 mi South 8.1 mph - N/A   Scattered Clouds
4:00 AM 62.6 °F 57.2 °F 82% 30.15 in 6.2 mi SSW 6.9 mph - N/A   Unknown
4:30 AM 62.6 °F 57.2 °F 82% 30.15 in 6.2 mi SSW 6.9 mph - N/A   Unknown
5:00 AM 60.8 °F 57.2 °F 88% 30.15 in 6.2 mi South 6.9 mph - N/A   Unknown
5:30 AM 60.8 °F 57.2 °F 88% 30.15 in 6.2 mi South 5.8 mph - N/A   Mostly Cloudy
6:00 AM 61 °F 56 °F 80% 30.19 in - South 4.6 mph - -  
6:00 AM 60.8 °F 57.2 °F 88% 30.18 in 6.2 mi South 4.6 mph - N/A   Mostly Cloudy
6:30 AM 60.8 °F 57.2 °F 88% 30.18 in 6.2 mi SSW 5.8 mph - N/A   Mostly Cloudy
7:00 AM 62.6 °F 57.2 °F 82% 30.18 in 6.2 mi SSE 5.8 mph - N/A   Overcast
7:30 AM 64.4 °F 57.2 °F 77% 30.18 in 6.2 mi SSW 6.9 mph - N/A   Overcast
8:00 AM 64.4 °F 57.2 °F 77% 30.18 in 6.2 mi South 8.1 mph - N/A   Overcast
8:30 AM 66.2 °F 59.0 °F 78% 30.21 in 6.2 mi South 8.1 mph - N/A   Overcast
9:00 AM 67 °F 58 °F 66% 30.21 in - South 10.4 mph - -   Overcast
9:00 AM 66.2 °F 59.0 °F 78% 30.18 in 6.2 mi South 10.4 mph - N/A   Overcast
9:30 AM 66.2 °F 57.2 °F 73% 30.18 in 6.2 mi South 9.2 mph - N/A   Overcast
10:00 AM 68.0 °F 59.0 °F 73% 30.18 in 6.2 mi South 10.4 mph - N/A   Mostly Cloudy
10:30 AM 68.0 °F 59.0 °F 73% 30.18 in 6.2 mi South 9.2 mph - N/A   Overcast
11:00 AM 68.0 °F 60.8 °F 78% 30.15 in 6.2 mi South 9.2 mph - N/A   Overcast
11:30 AM 68.0 °F 60.8 °F 78% 30.15 in 6.2 mi South 6.9 mph - N/A   Overcast
12:00 PM 69 °F 61 °F 69% 30.16 in - South 8.1 mph - -   Overcast
12:00 PM 69.8 °F 60.8 °F 73% 30.15 in 6.2 mi South 8.1 mph - N/A   Overcast
12:28 PM 68.0 °F 60.8 °F 78% 30.12 in 3.7 mi SSE 8.1 mph - N/A   Overcast
12:30 PM 68.0 °F 62.6 °F 83% 30.12 in 3.1 mi SSE 8.1 mph - N/A   Overcast
12:47 PM 68.0 °F 62.6 °F 83% 30.12 in 6.2 mi South 5.8 mph - N/A   Overcast
1:00 PM 68.0 °F 62.6 °F 83% 30.12 in 6.2 mi South 6.9 mph - N/A   Overcast
1:06 PM 66.2 °F 62.6 °F 88% 30.12 in 3.7 mi SSE 9.2 mph - N/A   Overcast
1:25 PM 66.2 °F 60.8 °F 83% 30.12 in 6.2 mi SSE 8.1 mph - N/A   Overcast
1:30 PM 66.2 °F 62.6 °F 88% 30.12 in 5.6 mi SSE 8.1 mph - N/A   Overcast
1:56 PM 66.2 °F 60.8 °F 83% 30.12 in 3.7 mi SSW 5.8 mph - N/A   Overcast
2:00 PM 66.2 °F 62.6 °F 88% 30.12 in - SW 5.8 mph - N/A   Overcast
2:30 PM 64.4 °F 62.6 °F 94% 30.12 in 1.6 mi SSE 8.1 mph - N/A   Overcast
3:00 PM 64 °F 62 °F 91% 30.14 in 3 mi South 5.8 mph - -   Overcast
3:00 PM 64.4 °F 62.6 °F 94% 30.12 in 3.1 mi South 5.8 mph - N/A   Overcast
3:30 PM 64.4 °F 62.6 °F 94% 30.12 in 1.8 mi South 6.9 mph - N/A   Overcast
4:00 PM 62.6 °F 60.8 °F 94% 30.12 in - South 6.9 mph - N/A   Overcast
4:30 PM 62.6 °F 60.8 °F 94% 30.15 in 6.2 mi SSW 8.1 mph - N/A   Overcast
4:34 PM 62.6 °F 60.8 °F 94% 30.15 in 6.2 mi South 9.2 mph - N/A   Overcast
5:00 PM 62.6 °F 60.8 °F 94% 30.12 in 6.2 mi South 5.8 mph - N/A   Overcast
5:30 PM 62.6 °F 60.8 °F 94% 30.15 in 6.2 mi SW 5.8 mph - N/A   Overcast
6:00 PM 63 °F 61 °F 92% 30.16 in - SSW 4.6 mph - -   Overcast
6:00 PM 62.6 °F 60.8 °F 94% 30.15 in 6.2 mi SSW 4.6 mph - N/A   Overcast
6:30 PM 62.6 °F 60.8 °F 94% 30.15 in 6.2 mi SSW 6.9 mph - N/A   Overcast
7:00 PM 62.6 °F 60.8 °F 94% 30.15 in 6.2 mi SSW 6.9 mph - N/A   Scattered Clouds
7:30 PM 62.6 °F 60.8 °F 94% 30.15 in 6.2 mi SSW 5.8 mph - N/A   Mostly Cloudy
8:00 PM 62.6 °F 60.8 °F 94% 30.15 in 6.2 mi SSW 6.9 mph - N/A   Mostly Cloudy
8:30 PM 62.6 °F 59.0 °F 88% 30.18 in 6.2 mi SSW 8.1 mph - N/A   Overcast
9:00 PM 62 °F 59 °F 87% 30.18 in - South 8.1 mph - -   Overcast
9:00 PM 62.6 °F 59.0 °F 88% 30.18 in 6.2 mi South 8.1 mph - N/A   Overcast
9:30 PM 62.6 °F 59.0 °F 88% 30.18 in 6.2 mi SSW 6.9 mph - N/A   Overcast
10:00 PM 62.6 °F 59.0 °F 88% 30.18 in 6.2 mi South 8.1 mph - N/A   Mostly Cloudy
10:30 PM 62.6 °F 59.0 °F 88% 30.15 in 6.2 mi South 8.1 mph - N/A   Overcast
11:00 PM 62.6 °F 59.0 °F 88% 30.15 in 6.2 mi SSW 3.5 mph - N/A   Overcast
11:30 PM 60.8 °F 59.0 °F 94% 30.15 in 6.2 mi Calm Calm - N/A   Overcast